Location: Bluff Heights
(33.7692°N, 118.1592°W)
Time: 07:01:41
(UTC+00:00)

Tiangong - Visible Passes

Search period start: 09 December 2022 00:00
Search period end: 19 December 2022 00:00
Orbit: 386 x 392 km, 41.5° (Epoch: 08 December)

Date Brightness Start Highest point End Pass type
(mag) Time Alt. Az. Time Alt. Az. Time Alt. Az.
09 Dec 0.0 02:39:44 10° WNW 02:41:09 24° NW 02:41:09 24° NW visible
10 Dec -1.5 01:41:35 10° NW 01:44:36 39° NNE 01:46:05 23° ENE visible
11 Dec -1.9 02:20:08 10° WNW 02:23:17 63° SSW 02:23:29 60° S visible
12 Dec -2.2 01:21:48 10° WNW 01:24:58 70° NNE 01:28:08 10° ESE visible
12 Dec 0.9 02:59:37 10° WSW 03:01:09 15° SW 03:01:09 15° SW visible
13 Dec -0.2 02:00:35 10° W 02:03:23 29° SW 02:06:11 10° SSE visible
15 Dec 1.0 01:41:30 10° WSW 01:43:15 14° SW 01:44:59 10° S visible
